TimeCST,TemperatureF,Dew PointF,Humidity,Sea Level PressureIn,VisibilityMPH,Wind Direction,Wind SpeedMPH,Gust SpeedMPH,PrecipitationIn,Events,Conditions,WindDirDegrees,DateUTC
12:56 AM,46.9,46.0,97,29.90,2.0,NW,13.8,17.3,N/A,,Overcast,310,2013-12-29 06:56:00
1:08 AM,46.9,46.0,97,29.94,1.5,NW,9.2,-,N/A,,Overcast,310,2013-12-29 07:08:00
1:56 AM,46.9,46.9,100,29.88,2.5,NNW,4.6,-,N/A,,Overcast,340,2013-12-29 07:56:00
2:03 AM,46.9,46.9,100,29.92,4.0,NNW,6.9,-,N/A,,Overcast,330,2013-12-29 08:03:00
2:56 AM,46.9,46.9,100,29.89,7.0,NNW,8.1,-,N/A,,Overcast,330,2013-12-29 08:56:00
3:56 AM,46.9,45.0,93,29.91,9.0,NW,9.2,-,N/A,,Overcast,320,2013-12-29 09:56:00
4:35 AM,46.9,45.0,93,29.93,8.0,Variable,4.6,-,N/A,,Overcast,0,2013-12-29 10:35:00
4:56 AM,46.9,44.1,90,29.91,8.0,NW,6.9,-,N/A,,Overcast,310,2013-12-29 10:56:00
5:34 AM,46.9,44.1,90,29.97,9.0,NW,8.1,-,N/A,,Mostly Cloudy,310,2013-12-29 11:34:00
5:56 AM,46.9,44.1,90,29.94,10.0,NW,6.9,-,N/A,,Overcast,310,2013-12-29 11:56:00
6:56 AM,46.9,44.1,90,29.97,10.0,NW,6.9,-,N/A,,Overcast,310,2013-12-29 12:56:00
7:56 AM,48.0,44.1,86,30.00,10.0,NW,10.4,-,N/A,,Overcast,320,2013-12-29 13:56:00
8:40 AM,48.0,45.0,89,30.06,9.0,NNW,6.9,-,N/A,,Overcast,330,2013-12-29 14:40:00
8:56 AM,48.0,45.0,89,30.04,10.0,NNW,8.1,-,N/A,,Overcast,330,2013-12-29 14:56:00
9:56 AM,48.9,46.0,90,30.04,7.0,Variable,4.6,-,N/A,,Overcast,0,2013-12-29 15:56:00
10:32 AM,51.1,46.0,83,30.07,10.0,North,8.1,-,N/A,,Overcast,350,2013-12-29 16:32:00
10:56 AM,51.1,46.0,83,30.04,10.0,North,6.9,-,N/A,,Overcast,360,2013-12-29 16:56:00
11:56 AM,52.0,46.9,83,30.01,10.0,Variable,5.8,-,N/A,,Overcast,0,2013-12-29 17:56:00
12:56 PM,53.1,46.9,80,29.99,10.0,North,6.9,-,N/A,,Overcast,350,2013-12-29 18:56:00
1:16 PM,54.0,46.9,77,30.02,10.0,NNW,8.1,-,N/A,,Overcast,340,2013-12-29 19:16:00
1:56 PM,54.0,46.9,77,29.98,10.0,North,5.8,-,N/A,,Overcast,10,2013-12-29 19:56:00
2:56 PM,54.0,46.0,75,29.99,10.0,NNE,6.9,-,N/A,,Overcast,20,2013-12-29 20:56:00
3:56 PM,52.0,46.0,80,30.00,10.0,North,4.6,-,N/A,,Overcast,350,2013-12-29 21:56:00
4:56 PM,50.0,44.1,80,30.02,10.0,Calm,Calm,-,N/A,,Overcast,0,2013-12-29 22:56:00
5:56 PM,46.0,43.0,89,30.04,9.0,Calm,Calm,-,N/A,,Mostly Cloudy,0,2013-12-29 23:56:00
6:56 PM,43.0,39.9,89,30.05,10.0,NNW,3.5,-,N/A,,Clear,330,2013-12-30 00:56:00
7:56 PM,43.0,39.9,89,30.06,10.0,NNW,4.6,-,N/A,,Clear,330,2013-12-30 01:56:00
8:56 PM,42.1,39.9,92,30.07,7.0,NW,4.6,-,N/A,,Clear,320,2013-12-30 02:56:00
9:56 PM,43.0,39.9,89,30.08,8.0,NNW,4.6,-,N/A,,Clear,330,2013-12-30 03:56:00
10:56 PM,42.1,39.0,89,30.08,7.0,NNW,4.6,-,N/A,,Clear,330,2013-12-30 04:56:00
11:56 PM,42.1,39.0,89,30.09,8.0,NNW,5.8,-,N/A,,Clear,330,2013-12-30 05:56:00